Lid_Strength_Index
-1 1 3 6 8 9 9 10 8 9 8 6 5 6 6 5 7 10 1 0 -0 -0 -1 -1 -1 -1 -1 -1 -1 -1 -1 -1 -1 -1 -1 -1 -2 -2 -2 -2 -1 -1 -1 -1 -1 -1 -1 -1 -1
1 4 4 6 9 11 9 8 9 7 6 5 5 6 6 7 4 4 3 0 -0 -0 -1 -1 -1 -1 -1 -1 -1 -1 -1 -1 -1 -1 -2 -2 -2 -2 -2 -2 -2 -1 -1 -1 -1 -1 -1 -1 -1
5 5 5 7 9 10 9 8 7 6 5 5 6 4 5 6 4 3 1 0 -0 -0 -1 -1 -1 -1 -1 -1 -1 -1 -1 -1 -1 -1 -2 -2 -2 -2 -2 -2 -2 -1 -1 -1 -1 -1 -1 -1 -1
6 7 8 9 10 9 8 7 6 6 5 5 5 7 4 3 3 1 0 -0 0 -0 -1 -1 -1 -1 -1 -1 -1 -1 -1 -1 -1 -1 -1 -1 -1 -2 -2 -2 -2 -1 -1 -1 -1 -2 -2 -1 -1
6 7 10 11 10 9 8 7 5 7 6 6 5 7 6 3 1 1 0 0 0 -0 -1 -1 -1 -1 -1 -1 -1 -1 -1 -1 -1 -1 -1 -1 -1 -2 -2 -2 -1 -1 -1 -1 -1 -1 -1 -1 -1
8 8 11 11 10 9 7 6 5 6 5 5 6 6 6 2 2 1 0 0 -0 -0 -1 -1 -1 -1 -1 -1 -1 -1 -1 -1 -1 -1 -1 -1 -1 -1 -1 -1 -1 -1 -1 -1 -1 -1 -1 -1 -1
7 9 10 11 11 10 8 5 6 6 6 6 4 7 5 3 1 1 0 0 -0 -0 -0 -1 -1 -1 -1 -1 -1 -1 -1 -1 -1 -1 -1 -2 -1 -1 -1 -1 -1 -1 -1 -1 -1 -2 -1 -1 -1
5 7 11 11 11 10 7 6 5 5 6 3 3 6 7 3 1 1 1 0 0 -0 -0 -0 -1 -1 -1 -1 -1 -1 -1 -1 -1 -1 -2 -2 -1 -1 -1 -1 -2 -1 -1 -1 -1 -2 -2 -2 -1
5 8 10 10 11 10 7 6 7 4 5 4 4 4 3 2 1 2 2 2 1 1 0 -0 -0 -1 -1 -1 -1 -1 -1 -1 -1 -1 -1 -1 -1 -1 -1 -1 -1 -1 -1 -1 -1 -2 -2 -1 -1
6 8 8 8 8 9 8 8 7 7 7 6 4 4 3 2 2 3 3 3 2 2 1 0 -0 -1 -1 -1 -1 -1 -1 -1 -1 -1 -2 -1 -1 -1 -1 -1 -1 -0 1 0 -1 -1 -2 -3 -2
6 7 6 6 7 8 9 9 8 8 8 6 5 5 4 4 3 3 3 2 2 1 1 0 0 -1 -1 -1 -1 -1 -1 -1 -1 -2 -1 -1 -1 -1 1 -0 -0 0 1 -0 -1 -2 -2 -2 -1
8 6 6 5 6 8 9 9 9 8 6 6 4 3 4 4 4 3 3 2 2 1 1 0 -0 -0 -1 -1 -1 -1 -1 -1 -1 -1 1 -0 1 1 1 -0 -0 -1 -2 -2 -2 -2 -2 -2 -2
8 7 6 5 5 6 8 9 10 9 6 6 3 4 4 4 3 3 2 2 2 2 1 0 -0 -0 -0 -1 -1 -1 -1 -1 -1 1 1 -0 -1 -1 -0 -0 -1 -1 -2 -1 -1 -1 -1 -1 -1
7 7 7 6 6 6 8 8 9 8 6 6 4 5 4 4 3 3 3 2 2 1 1 0 0 -1 -1 -0 -1 -1 -1 1 1 0 -1 -1 -1 -1 -1 -1 -1 -1 -1 -1 -0 -0 -0 -0 -0
8 8 7 7 6 7 6 9 9 8 7 6 4 4 4 4 3 3 2 2 2 1 0 1 -0 -0 -1 -1 -1 -1 -1 1 -0 -0 -1 -1 -2 -2 -2 -1 -1 -1 -1 -1 -1 -1 -0 1 1
9 9 10 7 7 6 6 9 7 7 6 6 5 4 4 4 3 3 2 2 2 1 1 0 0 -0 -0 -1 -1 -1 1 -0 -0 -1 -1 -1 -1 -2 -1 -0 -0 -0 -1 -0 0 0 1 1 1
10 11 11 9 7 7 7 8 6 6 6 8 6 4 5 4 4 3 2 2 2 1 1 1 0 0 -0 -1 -1 -1 1 0 -1 -1 -1 -1 -1 -1 -1 -0 -0 -0 0 0 1 1 1 2 1
11 11 11 10 8 8 8 8 6 5 5 5 4 5 5 5 4 3 2 2 1 2 1 0 0 0 -0 -0 -0 1 3 1 -1 -0 -0 -1 -0 -0 -1 -0 -0 0 1 1 1 0 0 1 1
9 10 11 10 8 9 8 8 7 6 6 5 4 4 5 5 4 3 2 2 2 2 1 1 1 0 0 1 1 2 4 1 -0 -0 -1 -1 -0 -0 -1 0 -0 -0 -0 -0 -0 1 1 1 1
10 10 10 9 8 9 8 9 7 6 6 6 5 4 4 4 4 4 3 2 2 2 1 1 1 1 0 0 0 0 2 1 -0 -1 -1 -1 -1 -1 -1 -1 -1 -1 -0 -0 -0 -0 2 1 0
10 10 10 10 9 9 9 10 8 6 6 5 5 4 3 4 5 4 4 3 2 2 2 1 1 1 0 0 1 4 4 1 1 0 0 -0 -1 -0 -1 -1 -1 -1 -1 0 -0 -0 0 2 1
11 9 9 10 10 12 9 13 9 8 7 6 5 5 4 4 4 4 4 3 3 3 1 1 1 1 1 1 2 3 3 2 1 0 -0 -0 -1 -1 -1 -1 -1 -1 -1 -1 -0 -0 0 1 2
9 8 9 9 10 11 10 12 10 9 8 7 5 5 4 3 3 4 4 3 3 2 2 2 2 2 1 3 2 3 1 1 0 0 -0 -1 -1 -1 -1 -1 -2 -1 -1 -1 -1 -1 -0 0 1
7 8 9 10 10 13 10 11 11 9 8 6 5 5 4 3 3 3 3 3 3 2 2 1 2 3 3 3 3 3 1 1 1 1 1 0 0 -0 -1 -1 -2 -1 -1 -1 -1 -1 -1 -0 0
8 9 13 14 14 15 9 11 10 7 7 6 6 5 5 5 3 3 3 3 3 3 2 2 2 4 4 4 4 4 2 1 1 1 1 1 1 0 -0 -1 -1 -1 -1 -1 -1 -1 -1 -1 0
9 9 12 16 15 13 11 13 9 7 6 6 5 5 4 4 3 4 3 3 3 3 2 2 3 3 4 5 5 5 2 1 1 0 0 0 0 -0 -1 -1 -1 -1 -1 -1 -1 -1 -0 -1 -0
10 11 9 11 11 13 11 9 8 7 7 6 6 6 5 5 4 4 3 2 3 3 2 2 3 3 4 5 5 5 3 0 1 0 -0 0 -0 -0 -1 -1 -1 -1 -1 -1 -1 -1 -0 -1 -1
9 9 13 12 16 17 13 12 11 10 9 7 7 6 5 5 4 4 3 2 2 2 2 2 3 3 3 5 5 5 3 0 0 0 0 -0 -0 -1 -1 -1 -1 -1 -1 -1 -1 -0 -0 -0 -0
11 10 11 12 13 15 15 13 9 9 8 8 7 6 6 5 4 4 3 3 2 2 2 2 2 3 3 4 6 5 4 1 0 0 0 0 -0 -1 -0 -0 -0 -0 -0 -1 -1 -0 -0 0 -0
12 13 13 15 14 13 13 13 9 9 8 7 7 6 6 5 4 4 3 3 2 3 2 2 2 2 2 3 5 5 4 1 1 0 0 -0 0 -0 -0 -0 -0 -0 -0 -1 -0 -0 0 1 1